Parkersburg, WV

7:01 AM EDT on May 27, 2017 (GMT -0400)
Wood County Wilson

Weather History for KPKB - February, 2013

Change the Weather History Date:

Monday, February 11, 2013

  Actual Average Record
Temperature  
Mean Temperature 53 °F 34 °F  
Max Temperature 62 °F 43 °F 77 °F (1932)
Min Temperature 43 °F 25 °F -11 °F (1899)
Degree Days  
Heating Degree Days 12 31  
Month to date heating degree days 363 351  
Since 1 July heating degree days 3204 3296  
Cooling Degree Days 0 0  
Month to date cooling degree days 0 0  
Year to date cooling degree days 0 0  
Growing Degree Days 2 (Base 50)    
Moisture  
Dew Point 35 °F    
Average Humidity 51    
Maximum Humidity 77    
Minimum Humidity 25    
Precipitation  
Precipitation 0.01 in 0.09 in 0.36 in (2009)
Month to date precipitation 0.45 1.06  
Year to date precipitation 3.83 4.01  
Sea Level Pressure  
Sea Level Pressure 29.88 in    
Wind  
Wind Speed 13 mph (SW)    
Max Wind Speed 30 mph    
Max Gust Speed 44 mph    
Visibility 10 miles    
Events      
T = Trace of Precipitation, MM = Missing Value Source: NWS Daily Summary

Daily Weather History Graph

Daily Weather History Graph

Search for Another Location

Airport or City:

Trip Planner

Search our weather history database for the weather conditions in past years. The results will help you decide how hot, cold, wet, or windy it might be!

Date:

Astronomy

Feb. 11, 2013 Rise Set
Actual Time 7:22 AM EST 5:58 PM EST
Civil Twilight 6:54 AM EST 6:26 PM EST
Nautical Twilight 6:22 AM EST 6:57 PM EST
Astronomical Twilight 5:51 AM EST 7:28 PM EST
Moon 7:46 AM EST (2/11) 7:52 PM EST (2/11)
Length of Visible Light 11h 31m
Length of Day
10h 36m
Waxing Crescent, 3% of the Moon is Illuminated
Feb 11
Waxing Crescent
Feb 17
First Quarter
Feb 25
Full
Mar 4
Last Quarter
Mar 11
New

Hourly Weather History & Observations

Time (EST) Temp. Windchill Dew Point Humidity Pressure Visibility Wind Dir Wind Speed Gust Speed Precip Events Conditions
12:53 AM 46.9 °F - 37.0 °F 68% 29.93 in 10.0 mi SSE 4.6 mph - N/A   Overcast
1:53 AM 48.0 °F - 37.9 °F 68% 29.89 in 10.0 mi South 8.1 mph - N/A   Overcast
2:53 AM 48.0 °F - 39.9 °F 74% 29.89 in 9.0 mi South 9.2 mph - N/A   Overcast
3:53 AM 48.0 °F - 39.9 °F 74% 29.87 in 10.0 mi South 5.8 mph - 0.01 in   Overcast
4:53 AM 48.9 °F - 41.0 °F 74% 29.87 in 10.0 mi South 8.1 mph - N/A   Overcast
5:53 AM 51.1 °F - 42.1 °F 71% 29.86 in 10.0 mi South 8.1 mph - N/A   Overcast
6:53 AM 52.0 °F - 43.0 °F 71% 29.85 in 10.0 mi South 9.2 mph - N/A   Overcast
7:04 AM 53.6 °F - 44.6 °F 72% 29.85 in 10.0 mi South 11.5 mph - N/A   Overcast
7:53 AM 54.0 °F - 45.0 °F 72% 29.84 in 10.0 mi SSW 11.5 mph - N/A   Scattered Clouds
8:29 AM 55.4 °F - 46.4 °F 72% 29.86 in 10.0 mi SSW 11.5 mph - N/A   Mostly Cloudy
8:42 AM 55.4 °F - 46.4 °F 72% 29.85 in 10.0 mi SSW 12.7 mph 19.6 mph N/A   Scattered Clouds
8:53 AM 55.9 °F - 46.9 °F 72% 29.84 in 10.0 mi SSW 16.1 mph 25.3 mph N/A   Partly Cloudy
9:53 AM 57.9 °F - 43.0 °F 58% 29.83 in 10.0 mi SSW 16.1 mph 29.9 mph N/A   Clear
10:53 AM 59.0 °F - 39.0 °F 48% 29.82 in 10.0 mi SW 16.1 mph 34.5 mph N/A   Partly Cloudy
11:53 AM 61.0 °F - 33.1 °F 35% 29.82 in 10.0 mi SW 15.0 mph 32.2 mph N/A   Clear
12:53 PM 60.1 °F - 28.0 °F 30% 29.81 in 10.0 mi WSW 18.4 mph 28.8 mph N/A   Clear
1:53 PM 60.1 °F - 25.0 °F 26% 29.79 in 10.0 mi SW 21.9 mph 36.8 mph N/A   Clear
2:53 PM 60.1 °F - 25.0 °F 26% 29.80 in 10.0 mi WSW 16.1 mph 39.1 mph N/A   Clear
3:53 PM 57.9 °F - 27.0 °F 31% 29.82 in 10.0 mi WSW 15.0 mph 29.9 mph N/A   Clear
4:53 PM 55.9 °F - 26.1 °F 32% 29.84 in 10.0 mi WSW 12.7 mph 27.6 mph N/A   Clear
5:53 PM 53.1 °F - 27.0 °F 37% 29.87 in 10.0 mi West 13.8 mph 28.8 mph N/A   Partly Cloudy
6:53 PM 50.0 °F - 25.0 °F 38% 29.91 in 10.0 mi West 17.3 mph 27.6 mph N/A   Clear
7:53 PM 46.9 °F - 25.0 °F 42% 29.94 in 10.0 mi West 21.9 mph 32.2 mph N/A   Clear
8:53 PM 46.9 °F - 26.1 °F 44% 29.97 in 10.0 mi West 15.0 mph 25.3 mph N/A   Overcast
9:53 PM 45.0 °F 37.9 °F 26.1 °F 48% 30.00 in 10.0 mi WNW 16.1 mph 23.0 mph N/A   Overcast
10:53 PM 43.0 °F 36.8 °F 26.1 °F 51% 30.02 in 10.0 mi West 11.5 mph 19.6 mph N/A   Overcast
11:53 PM 43.0 °F 39.5 °F 24.1 °F 47% 30.03 in 10.0 mi West 5.8 mph - N/A   Overcast